Tracking 18850 objects as of 22-Nov-2017
HD Live streaming from Space Station
objects crossing your sky now

FENGYUN 1C DEB

Track FENGYUN 1C DEB now!
10-day predictions


NORAD ID: 29878
Int'l Code: 1999-025FY
Perigee: 707.5 km
Apogee: 889.8 km
Inclination: 97.0 °
Period: 100.7 minutes
Semi major axis: 7169 km
RCS: 0.0385 m2 (small)
Launch date: May 10, 1999
Source: People's Republic of China (PRC)
Launch site: Taiyaun Space Center, China (TSC)

Note: This is SATELLITE DEBRIS
aabbcc
Your satellite tracking list
Your tracking list is empty




NASA's NSSDC Master Catalog

Two Line Element Set (TLE):
1 29878U 99025FY  17325.81343976 +.00001461 +00000-0 +52944-3 0  9997
2 29878 097.0122 261.0664 0127146 013.7525 346.7073 14.30059467562086
Source of the keplerian elements: AFSPC